TimeEDT,TemperatureF,Dew PointF,Humidity,Sea Level PressureIn,VisibilityMPH,Wind Direction,Wind SpeedMPH,Gust SpeedMPH,PrecipitationIn,Events,Conditions,WindDirDegrees,DateUTC
12:14 AM,42.1,27.0,55,30.35,10.0,SSE,9.2,-,N/A,,Clear,160,2013-04-22 04:14:00
12:35 AM,41.9,27.1,56,30.35,10.0,SSE,10.4,18.4,N/A,,Clear,160,2013-04-22 04:35:00
12:54 AM,41.4,27.5,58,30.34,10.0,South,10.4,-,N/A,,Clear,170,2013-04-22 04:54:00
1:14 AM,41.7,27.9,58,30.34,10.0,SSE,8.1,17.3,N/A,,Clear,160,2013-04-22 05:14:00
1:34 AM,41.5,28.0,59,30.33,10.0,SSE,8.1,-,N/A,,Clear,160,2013-04-22 05:34:00
1:54 AM,41.7,28.4,59,30.33,10.0,SSE,9.2,-,N/A,,Clear,160,2013-04-22 05:54:00
2:15 AM,41.2,28.2,60,30.32,10.0,South,13.8,21.9,N/A,,Clear,170,2013-04-22 06:15:00
2:34 AM,41.0,28.2,60,30.32,10.0,South,9.2,19.6,N/A,,Clear,170,2013-04-22 06:34:00
2:54 AM,40.5,28.0,61,30.31,10.0,SSE,10.4,20.7,N/A,,Clear,160,2013-04-22 06:54:00
3:14 AM,40.3,27.9,61,30.31,10.0,SSE,10.4,20.7,N/A,,Clear,160,2013-04-22 07:14:00
3:34 AM,40.1,27.5,61,30.31,10.0,South,9.2,19.6,N/A,,Clear,180,2013-04-22 07:34:00
3:55 AM,39.4,27.3,62,30.30,10.0,South,11.5,17.3,N/A,,Clear,170,2013-04-22 07:55:00
4:14 AM,39.2,27.3,62,30.30,10.0,South,11.5,19.6,N/A,,Mostly Cloudy,180,2013-04-22 08:14:00
4:34 AM,39.2,26.6,61,30.30,10.0,SSE,11.5,18.4,N/A,,Mostly Cloudy,160,2013-04-22 08:34:00
4:55 AM,38.8,26.2,61,30.32,10.0,SSW,5.8,19.6,N/A,,Mostly Cloudy,200,2013-04-22 08:55:00
5:14 AM,38.7,26.2,61,30.31,10.0,South,6.9,-,N/A,,Mostly Cloudy,170,2013-04-22 09:14:00
5:34 AM,38.3,26.1,61,30.31,10.0,South,8.1,-,N/A,,Scattered Clouds,180,2013-04-22 09:34:00
5:55 AM,38.8,26.1,60,30.31,10.0,South,9.2,16.1,N/A,,Clear,190,2013-04-22 09:55:00
6:14 AM,39.4,26.4,60,30.32,10.0,South,9.2,18.4,N/A,,Clear,190,2013-04-22 10:14:00
6:34 AM,39.2,26.4,60,30.31,10.0,South,8.1,-,N/A,,Scattered Clouds,180,2013-04-22 10:34:00
6:55 AM,39.6,26.4,59,30.31,10.0,SSE,8.1,-,N/A,,Mostly Cloudy,160,2013-04-22 10:55:00
7:14 AM,39.9,26.6,59,30.29,10.0,SSE,10.4,21.9,N/A,,Overcast,160,2013-04-22 11:14:00
7:35 AM,40.5,26.8,58,30.31,10.0,South,9.2,-,N/A,,Overcast,180,2013-04-22 11:35:00
7:55 AM,41.0,26.8,57,30.32,10.0,South,4.6,-,N/A,,Overcast,190,2013-04-22 11:55:00
8:14 AM,41.0,27.1,58,30.33,10.0,South,8.1,-,N/A,,Mostly Cloudy,180,2013-04-22 12:14:00
8:35 AM,41.5,27.1,57,30.33,10.0,South,6.9,-,N/A,,Scattered Clouds,180,2013-04-22 12:35:00
8:55 AM,42.3,27.5,56,30.33,10.0,SSE,6.9,-,N/A,,Scattered Clouds,160,2013-04-22 12:55:00
9:14 AM,43.9,27.9,53,30.32,10.0,South,10.4,-,N/A,,Scattered Clouds,170,2013-04-22 13:14:00
9:35 AM,45.1,27.9,51,30.31,10.0,South,11.5,-,N/A,,Clear,170,2013-04-22 13:35:00
9:54 AM,46.9,28.0,48,30.31,10.0,South,8.1,16.1,N/A,,Clear,190,2013-04-22 13:54:00
10:14 AM,49.1,28.4,45,30.31,10.0,South,9.2,-,N/A,,Clear,180,2013-04-22 14:14:00
10:35 AM,50.2,27.9,42,30.31,10.0,South,9.2,-,N/A,,Clear,190,2013-04-22 14:35:00
10:54 AM,51.8,28.4,41,30.31,10.0,SSW,8.1,-,N/A,,Mostly Cloudy,200,2013-04-22 14:54:00
11:14 AM,51.8,28.2,40,30.30,10.0,South,9.2,-,N/A,,Overcast,180,2013-04-22 15:14:00
11:35 AM,53.4,28.6,38,30.29,10.0,South,9.2,-,N/A,,Overcast,190,2013-04-22 15:35:00
11:54 AM,54.1,28.8,38,30.29,10.0,South,10.4,-,N/A,,Scattered Clouds,180,2013-04-22 15:54:00
12:15 PM,54.9,28.8,37,30.29,10.0,SSW,5.8,-,N/A,,Clear,200,2013-04-22 16:15:00
12:35 PM,56.7,29.5,35,30.28,10.0,South,8.1,-,N/A,,Clear,190,2013-04-22 16:35:00
12:54 PM,56.7,28.4,34,30.27,10.0,South,4.6,-,N/A,,Clear,180,2013-04-22 16:54:00
1:15 PM,57.7,28.4,33,30.26,10.0,Calm,Calm,-,N/A,,Clear,0,2013-04-22 17:15:00
1:35 PM,60.1,28.8,30,30.24,10.0,South,5.8,-,N/A,,Clear,190,2013-04-22 17:35:00
1:54 PM,61.7,29.8,30,30.23,10.0,South,6.9,-,N/A,,Clear,180,2013-04-22 17:54:00
2:15 PM,62.2,29.5,29,30.22,10.0,ESE,6.9,-,N/A,,Clear,120,2013-04-22 18:15:00
2:34 PM,63.1,29.5,28,30.21,10.0,South,4.6,18.4,N/A,,Clear,170,2013-04-22 18:34:00
2:54 PM,63.1,29.7,28,30.21,10.0,SSE,6.9,-,N/A,,Clear,150,2013-04-22 18:54:00
3:15 PM,64.0,29.8,28,30.20,10.0,SSE,5.8,-,N/A,,Clear,150,2013-04-22 19:15:00
3:34 PM,64.4,30.2,28,30.19,10.0,Calm,Calm,-,N/A,,Clear,0,2013-04-22 19:34:00
3:55 PM,65.5,30.7,27,30.18,10.0,South,10.4,21.9,N/A,,Clear,180,2013-04-22 19:55:00
4:15 PM,65.5,30.0,26,30.17,10.0,South,6.9,23.0,N/A,,Clear,180,2013-04-22 20:15:00
4:34 PM,66.0,30.9,27,30.16,10.0,SSE,8.1,23.0,N/A,,Clear,160,2013-04-22 20:34:00
4:55 PM,66.0,30.9,27,30.15,10.0,West,6.9,16.1,N/A,,Clear,260,2013-04-22 20:55:00
5:14 PM,64.9,30.7,28,30.15,10.0,South,6.9,-,N/A,,Clear,170,2013-04-22 21:14:00
5:35 PM,64.4,31.3,29,30.15,10.0,SSW,5.8,-,N/A,,Clear,210,2013-04-22 21:35:00
5:55 PM,63.7,31.1,29,30.14,10.0,Calm,Calm,-,N/A,,Clear,0,2013-04-22 21:55:00
6:14 PM,62.2,32.0,32,30.14,10.0,NW,4.6,-,N/A,,Clear,320,2013-04-22 22:14:00
6:35 PM,59.5,31.8,35,30.14,10.0,NNW,8.1,-,N/A,,Clear,330,2013-04-22 22:35:00
6:55 PM,59.2,32.0,36,30.14,10.0,NW,4.6,-,N/A,,Clear,320,2013-04-22 22:55:00
7:14 PM,57.7,31.8,37,30.14,10.0,NNW,6.9,-,N/A,,Clear,340,2013-04-22 23:14:00
7:35 PM,54.1,31.5,42,30.14,10.0,NNW,9.2,-,N/A,,Clear,340,2013-04-22 23:35:00
7:55 PM,50.9,31.6,48,30.14,10.0,NNW,6.9,-,N/A,,Clear,330,2013-04-22 23:55:00
8:14 PM,49.1,30.7,49,30.15,10.0,North,4.6,-,N/A,,Clear,350,2013-04-23 00:14:00
8:35 PM,46.9,30.6,53,30.14,10.0,NNE,3.5,-,N/A,,Clear,20,2013-04-23 00:35:00
8:55 PM,46.4,32.9,59,30.15,10.0,North,3.5,-,N/A,,Clear,10,2013-04-23 00:55:00
9:15 PM,43.2,34.9,73,30.15,10.0,North,3.5,-,N/A,,Clear,350,2013-04-23 01:15:00
9:35 PM,41.9,33.6,72,30.15,10.0,Calm,Calm,-,N/A,,Clear,0,2013-04-23 01:35:00
9:55 PM,40.8,32.2,71,30.15,10.0,North,3.5,-,N/A,,Clear,10,2013-04-23 01:55:00
10:15 PM,41.0,32.9,73,30.15,10.0,Calm,Calm,-,N/A,,Clear,0,2013-04-23 02:15:00
10:34 PM,37.6,32.2,81,30.14,10.0,Calm,Calm,-,N/A,,Clear,0,2013-04-23 02:34:00
10:55 PM,38.1,32.7,81,30.14,10.0,Calm,Calm,-,N/A,,Clear,0,2013-04-23 02:55:00
11:15 PM,36.7,32.7,86,30.13,10.0,Calm,Calm,-,N/A,,Clear,0,2013-04-23 03:15:00
11:35 PM,36.1,32.5,87,30.12,10.0,Calm,Calm,-,N/A,,Clear,0,2013-04-23 03:35:00
11:54 PM,34.7,32.0,90,30.12,10.0,Calm,Calm,-,N/A,,Clear,0,2013-04-23 03:54:00